• în România
  • Lista ţărilor
  • Pe 7 zile
  • Temperatura apei
  • Hartă satelitară
  • Meteo pe hartă
  • Widget-uri
  • user-avatar
    Intrare

    Meteo pe oră la Sozopol

    Astăzi, 20 Iunie, Miercuri

    Timp Temperatura Precipitaţii Vânt Presiune Umiditate
    00:00 +19°C° 0 mm 3 m/s 758 mmHg 68%
    01:00 +19°C° 0 mm 4 m/s 758 mmHg 67%
    02:00 +19°C° 0 mm 4 m/s 758 mmHg 66%
    03:00 +18°C° 0 mm 4 m/s 758 mmHg 65%
    04:00 +18°C° 0 mm 4 m/s 758 mmHg 64%
    05:00 +17°C° 0 mm 4 m/s 758 mmHg 63%
    06:00 +20°C° 0 mm 4 m/s 758 mmHg 57%
    07:00 +23°C° 0 mm 5 m/s 758 mmHg 52%
    08:00 +26°C° 0 mm 5 m/s 759 mmHg 46%
    09:00 +28°C° 0 mm 5 m/s 759 mmHg 41%
    10:00 +30°C° 0 mm 5 m/s 759 mmHg 36%
    11:00 +32°C° 0 mm 6 m/s 759 mmHg 31%
    12:00 +33°C° 0 mm 6 m/s 759 mmHg 30%
    13:00 +33°C° 0 mm 6 m/s 759 mmHg 30%
    14:00 +33°C° 0 mm 6 m/s 759 mmHg 29%
    15:00 +33°C° 0 mm 6 m/s 759 mmHg 31%
    16:00 +32°C° 0 mm 6 m/s 759 mmHg 34%
    17:00 +30°C° 0 mm 5 m/s 758 mmHg 36%
    18:00 +28°C° 0 mm 5 m/s 759 mmHg 45%
    19:00 +25°C° 0 mm 4 m/s 759 mmHg 54%
    20:00 +22°C° 0 mm 3 m/s 759 mmHg 63%
    21:00 +21°C° 0 mm 3 m/s 759 mmHg 66%
    22:00 +20°C° 0 mm 3 m/s 759 mmHg 70%
    23:00 +20°C° 0 mm 3 m/s 759 mmHg 73%

    Mâine, 21 Iunie, Joi

    Timp Temperatura Precipitaţii Vânt Presiune Umiditate
    00:00 +19°C° 0 mm 3 m/s 759 mmHg 72%
    01:00 +19°C° 0 mm 3 m/s 759 mmHg 70%
    02:00 +19°C° 0 mm 3 m/s 759 mmHg 69%
    03:00 +18°C° 0 mm 3 m/s 759 mmHg 67%
    04:00 +18°C° 0 mm 3 m/s 758 mmHg 65%
    05:00 +18°C° 0 mm 3 m/s 758 mmHg 63%
    06:00 +21°C° 0 mm 3 m/s 758 mmHg 57%
    07:00 +23°C° 0 mm 4 m/s 758 mmHg 51%
    08:00 +27°C° 0 mm 4 m/s 758 mmHg 45%
    09:00 +29°C° 0 mm 4 m/s 758 mmHg 42%
    10:00 +30°C° 0 mm 4 m/s 758 mmHg 38%
    11:00 +33°C° 0 mm 4 m/s 757 mmHg 35%
    12:00 +33°C° 0 mm 4 m/s 757 mmHg 36%
    13:00 +34°C° 0 mm 4 m/s 757 mmHg 37%
    14:00 +34°C° 0 mm 4 m/s 756 mmHg 39%
    15:00 +33°C° 0 mm 4 m/s 756 mmHg 40%
    16:00 +33°C° 0 mm 3 m/s 755 mmHg 42%
    17:00 +31°C° 0 mm 3 m/s 755 mmHg 43%
    18:00 +29°C° 0 mm 3 m/s 755 mmHg 52%
    19:00 +27°C° 0 mm 2 m/s 755 mmHg 61%
    20:00 +24°C° 0 mm 1 m/s 755 mmHg 70%
    21:00 +23°C° 0 mm 1 m/s 755 mmHg 73%
    22:00 +23°C° 0 mm 1 m/s 755 mmHg 76%
    23:00 +20°C° 0 mm 0 m/s 755 mmHg 78%

    Poimâine, 22 Iunie, Vineri

    Timp Temperatura Precipitaţii Vânt Presiune Umiditate
    00:00 +21°C° 0 mm 1 m/s 755 mmHg 77%
    01:00 +21°C° 0 mm 1 m/s 755 mmHg 76%
    02:00 +21°C° 0 mm 1 m/s 755 mmHg 74%
    03:00 +21°C° 0 mm 1 m/s 754 mmHg 73%
    04:00 +21°C° 0 mm 1 m/s 754 mmHg 72%
    05:00 +20°C° 0 mm 2 m/s 754 mmHg 71%
    06:00 +23°C° 0 mm 1 m/s 754 mmHg 64%
    07:00 +26°C° 0 mm 1 m/s 754 mmHg 57%
    08:00 +28°C° 0 mm 1 m/s 754 mmHg 50%
    09:00 +30°C° 0 mm 1 m/s 754 mmHg 46%
    10:00 +32°C° 0 mm 1 m/s 753 mmHg 42%
    11:00 +34°C° 0 mm 1 m/s 753 mmHg 37%
    12:00 +35°C° 0 mm 2 m/s 753 mmHg 37%
    13:00 +35°C° 0 mm 2 m/s 753 mmHg 38%
    14:00 +34°C° 0 mm 3 m/s 752 mmHg 38%
    15:00 +34°C° 0 mm 3 m/s 752 mmHg 40%
    16:00 +33°C° 0 mm 3 m/s 752 mmHg 42%
    17:00 +31°C° 0 mm 3 m/s 752 mmHg 44%
    18:00 +29°C° 0,2 mm 3 m/s 752 mmHg 51%
    19:00 +27°C° 0,2 mm 3 m/s 752 mmHg 57%
    20:00 +26°C° 0,2 mm 3 m/s 752 mmHg 63%
    21:00 +25°C° 0,2 mm 3 m/s 752 mmHg 68%
    22:00 +24°C° 0,2 mm 3 m/s 752 mmHg 73%
    23:00 +22°C° 0,2 mm 3 m/s 753 mmHg 78%

    23 Iunie, Sâmbătă

    Timp Temperatura Precipitaţii Vânt Presiune Umiditate
    00:00 +21°C° 0,2 mm 5 m/s 753 mmHg 80%
    01:00 +20°C° 0,2 mm 7 m/s 753 mmHg 83%
    02:00 +19°C° 0,2 mm 9 m/s 753 mmHg 86%
    03:00 +18°C° 0,3 mm 8 m/s 754 mmHg 86%
    04:00 +17°C° 0,3 mm 8 m/s 754 mmHg 86%
    05:00 +16°C° 0,3 mm 8 m/s 754 mmHg 86%
    06:00 +17°C° 0 mm 8 m/s 755 mmHg 81%
    07:00 +17°C° 0 mm 8 m/s 755 mmHg 76%
    08:00 +18°C° 0 mm 8 m/s 756 mmHg 71%
    09:00 +20°C° 0 mm 8 m/s 756 mmHg 64%
    10:00 +22°C° 0 mm 8 m/s 757 mmHg 58%
    11:00 +23°C° 0 mm 7 m/s 757 mmHg 52%
    12:00 +24°C° 0 mm 7 m/s 757 mmHg 51%
    13:00 +24°C° 0 mm 7 m/s 757 mmHg 51%
    14:00 +26°C° 0 mm 6 m/s 758 mmHg 50%
    15:00 +24°C° 0 mm 6 m/s 758 mmHg 51%
    16:00 +25°C° 0 mm 5 m/s 758 mmHg 52%
    17:00 +25°C° 0 mm 5 m/s 758 mmHg 54%
    18:00 +22°C° 0 mm 5 m/s 758 mmHg 59%
    19:00 +20°C° 0 mm 4 m/s 758 mmHg 65%
    20:00 +19°C° 0 mm 4 m/s 759 mmHg 71%
    21:00 +18°C° 0 mm 4 m/s 759 mmHg 73%
    22:00 +17°C° 0 mm 3 m/s 759 mmHg 76%
    23:00 +16°C° 0 mm 3 m/s 759 mmHg 78%

    24 Iunie, Duminică

    Timp Temperatura Precipitaţii Vânt Presiune Umiditate
    00:00 +16°C° 0 mm 3 m/s 759 mmHg 78%
    01:00 +16°C° 0 mm 3 m/s 759 mmHg 78%
    02:00 +16°C° 0 mm 3 m/s 759 mmHg 78%
    03:00 +16°C° 0 mm 3 m/s 759 mmHg 78%
    04:00 +14°C° 0 mm 3 m/s 759 mmHg 78%
    05:00 +14°C° 0 mm 3 m/s 759 mmHg 79%
    06:00 +17°C° 0 mm 4 m/s 759 mmHg 72%
    07:00 +20°C° 0 mm 4 m/s 759 mmHg 66%
    08:00 +22°C° 0 mm 4 m/s 760 mmHg 59%
    09:00 +23°C° 0 mm 4 m/s 760 mmHg 56%
    10:00 +25°C° 0 mm 5 m/s 760 mmHg 52%
    11:00 +26°C° 0 mm 5 m/s 760 mmHg 48%
    12:00 +27°C° 0 mm 5 m/s 759 mmHg 47%
    13:00 +27°C° 0 mm 5 m/s 759 mmHg 47%
    14:00 +27°C° 0 mm 5 m/s 759 mmHg 46%
    15:00 +27°C° 0 mm 5 m/s 759 mmHg 48%
    16:00 +26°C° 0 mm 5 m/s 759 mmHg 50%
    17:00 +26°C° 0 mm 5 m/s 759 mmHg 52%
    18:00 +23°C° 0 mm 5 m/s 759 mmHg 60%
    19:00 +21°C° 0 mm 5 m/s 759 mmHg 67%
    20:00 +19°C° 0 mm 4 m/s 759 mmHg 75%
    21:00 +19°C° 0 mm 4 m/s 759 mmHg 79%
    22:00 +18°C° 0 mm 4 m/s 759 mmHg 83%
    23:00 +17°C° 0 mm 4 m/s 759 mmHg 87%

    25 Iunie, Luni

    Timp Temperatura Precipitaţii Vânt Presiune Umiditate
    00:00 +17°C° 0 mm 4 m/s 759 mmHg 88%
    01:00 +17°C° 0 mm 4 m/s 759 mmHg 89%
    02:00 +17°C° 0 mm 3 m/s 759 mmHg 89%
    03:00 +17°C° 0 mm 4 m/s 759 mmHg 89%
    04:00 +17°C° 0 mm 4 m/s 759 mmHg 90%
    05:00 +17°C° 0 mm 4 m/s 759 mmHg 90%
    06:00 +19°C° 0 mm 4 m/s 759 mmHg 80%
    07:00 +21°C° 0 mm 5 m/s 759 mmHg 71%
    08:00 +23°C° 0 mm 5 m/s 759 mmHg 62%
    09:00 +25°C° 0 mm 5 m/s 759 mmHg 56%
    10:00 +27°C° 0 mm 6 m/s 758 mmHg 51%
    11:00 +28°C° 0 mm 6 m/s 758 mmHg 45%
    12:00 +28°C° 0 mm 6 m/s 758 mmHg 44%
    13:00 +28°C° 0 mm 6 m/s 758 mmHg 43%
    14:00 +29°C° 0 mm 6 m/s 757 mmHg 42%
    15:00 +28°C° 0 mm 6 m/s 757 mmHg 45%
    16:00 +28°C° 0 mm 6 m/s 757 mmHg 48%
    17:00 +27°C° 0 mm 6 m/s 757 mmHg 51%
    18:00 +24°C° 0 mm 6 m/s 757 mmHg 58%
    19:00 +22°C° 0 mm 6 m/s 757 mmHg 64%
    20:00 +21°C° 0 mm 5 m/s 758 mmHg 71%
    21:00 +20°C° 0 mm 5 m/s 758 mmHg 76%
    22:00 +19°C° 0 mm 5 m/s 758 mmHg 80%
    23:00 +19°C° 0 mm 4 m/s 758 mmHg 85%
    Arată mai mult